Date String (YYYY-MM-DD hh:mm:ss) UTC,Instrument flags,Ambient pressure (hPa),Sample flow (lpm),Bypass flow (lpm),Sample temperature (°C),Ambient temperature (°C),ASC tube jacket temperature (°C),LED temperature (°C),Box temperature (°C),Sample RH (%),Span deviation,Mass concentration (μg/m³),Mass concentration (μg/m³),Mass concentration (μg/m³)
DateTimeUTC,F1_M11,P_M11,Q1_M11,Q2_M11,T1_M11,T2_M11,T3_M11,T4_M11,T5_M11,U1_M11,ZSPAN_M11,X0_M11,X2_M11,X1_M11
2022-12-21 18:00:00,,0817.2,4.97,0.00,22.2,20.9,00.0,31.0,23.9,08.1,0000.0,0001.47,0000.85,0000.58
2022-12-21 18:01:00,,0817.1,5.02,0.00,22.2,20.9,00.0,31.0,23.9,08.2,0000.0,0001.45,0000.85,0000.58
2022-12-21 18:02:00,,0817.2,5.03,0.00,22.1,20.9,00.0,31.0,23.9,08.1,0000.0,0001.40,0000.84,0000.58
2022-12-21 18:03:00,,0817.1,4.95,0.00,22.1,20.8,00.0,31.0,23.8,08.1,0000.0,0001.44,0000.87,0000.58
2022-12-21 18:04:00,,0817.1,5.01,0.00,22.1,20.8,00.0,31.0,23.8,08.2,0000.0,0001.45,0000.85,0000.57
2022-12-21 18:05:00,,0817.2,5.03,0.00,22.1,20.8,00.0,31.0,23.8,08.2,0000.0,0001.40,0000.82,0000.56
2022-12-21 18:06:00,,0817.2,4.97,0.00,22.1,20.8,00.0,31.0,23.8,08.2,0000.0,0001.41,0000.82,0000.56
2022-12-21 18:07:00,,0817.2,4.99,0.00,22.1,20.8,00.0,31.0,23.8,08.3,0000.0,0001.47,0000.84,0000.56
2022-12-21 18:08:00,,0817.2,5.03,0.00,22.1,20.8,00.0,31.0,23.8,08.3,0000.0,0001.50,0000.85,0000.56
2022-12-21 18:09:00,,0817.2,5.02,0.00,22.1,20.8,00.0,31.0,23.9,08.2,0000.0,0001.44,0000.82,0000.55
2022-12-21 18:10:00,,0817.2,4.95,0.00,22.1,20.8,00.0,31.0,23.8,08.3,0000.0,0001.62,0000.84,0000.56
2022-12-21 18:11:00,,0817.0,5.00,0.00,22.1,20.8,00.0,31.0,23.8,08.4,0000.0,0001.53,0000.83,0000.57
2022-12-21 18:12:00,,0816.6,5.02,0.00,22.1,20.8,00.0,31.0,23.8,08.3,0000.0,0001.57,0000.83,0000.56
2022-12-21 18:13:00,,0816.8,5.01,0.00,22.1,20.8,00.0,31.0,23.8,08.3,0000.0,0001.75,0000.86,0000.57
2022-12-21 18:14:00,,0816.9,4.96,0.00,22.1,20.8,00.0,30.9,23.8,08.3,0000.0,0001.88,0000.91,0000.58
2022-12-21 18:15:00,,0817.1,5.05,0.00,22.1,20.8,00.0,30.9,23.8,08.3,0000.0,0001.97,0000.95,0000.60
2022-12-21 18:16:00,,0816.9,5.03,0.00,22.1,20.8,00.0,30.9,23.8,08.3,0000.0,0002.07,0000.99,0000.60
2022-12-21 18:17:00,,0816.8,4.99,0.00,22.0,20.7,00.0,30.9,23.7,08.4,0000.0,0002.60,0001.00,0000.59
2022-12-21 18:18:00,,0816.9,4.97,0.00,22.0,20.6,00.0,30.9,23.7,08.4,0000.0,0002.68,0000.99,0000.59
2022-12-21 18:19:00,,0817.0,5.02,0.00,22.0,20.7,00.0,30.9,23.7,08.4,0000.0,0003.63,0000.97,0000.58
2022-12-21 18:20:00,,0816.9,5.02,0.00,22.0,20.7,00.0,30.9,23.7,08.4,0000.0,0003.74,0000.98,0000.57
2022-12-21 18:21:00,,0816.8,4.95,0.00,22.0,20.7,00.0,30.9,23.7,08.5,0000.0,0003.65,0000.99,0000.58
2022-12-21 18:22:00,,0816.9,5.02,0.00,22.0,20.8,00.0,30.9,23.7,08.5,0000.0,0003.64,0001.00,0000.58
2022-12-21 18:23:00,,0816.7,5.03,0.00,22.0,20.8,00.0,30.9,23.8,08.5,0000.0,0003.71,0001.02,0000.57
2022-12-21 18:24:00,,0816.9,4.97,0.00,22.0,20.8,00.0,30.9,23.8,08.6,0000.0,0003.65,0001.03,0000.57
2022-12-21 18:25:00,,0816.7,5.00,0.00,22.0,20.8,00.0,30.9,23.8,08.6,0000.0,0003.49,0000.97,0000.56
2022-12-21 18:26:00,,0816.8,5.02,0.00,22.0,20.8,00.0,30.9,23.8,08.4,0000.0,0003.27,0000.89,0000.55
2022-12-21 18:27:00,,0816.7,5.01,0.00,22.0,20.9,00.0,30.9,23.8,08.4,0000.0,0003.21,0000.85,0000.54
2022-12-21 18:28:00,,0816.8,4.96,0.00,22.1,20.9,00.0,30.9,23.8,08.5,0000.0,0002.70,0000.83,0000.54
2022-12-21 18:29:00,,0816.6,5.04,0.00,22.1,20.9,00.0,30.9,23.8,08.5,0000.0,0002.90,0000.81,0000.54
2022-12-21 18:30:00,,0816.6,5.00,0.00,22.1,20.9,00.0,30.9,23.8,08.5,0000.0,0003.20,0000.82,0000.55
2022-12-21 18:31:00,,0816.8,4.96,0.00,22.1,21.0,00.0,30.9,23.8,08.4,0000.0,0003.11,0000.83,0000.55
2022-12-21 18:32:00,,0816.7,5.03,0.00,22.1,20.9,00.0,30.9,23.9,08.5,0000.0,0003.46,0000.82,0000.55
2022-12-21 18:33:00,,0816.6,5.02,0.00,22.1,20.9,00.0,30.9,23.8,08.5,0000.0,0003.55,0000.82,0000.54
2022-12-21 18:34:00,,0816.4,4.95,0.00,22.1,21.0,00.0,30.9,23.9,08.5,0000.0,0003.39,0000.78,0000.54
2022-12-21 18:35:00,,0816.4,5.01,0.00,22.1,21.0,00.0,30.9,23.9,08.4,0000.0,0003.33,0000.76,0000.53
2022-12-21 18:36:00,,0816.4,5.02,0.00,22.1,21.0,00.0,30.9,23.9,08.4,0000.0,0003.39,0000.78,0000.54
2022-12-21 18:37:00,,0816.4,5.01,0.00,22.1,21.0,00.0,30.9,23.9,08.5,0000.0,0003.38,0000.78,0000.55
2022-12-21 18:38:00,,0816.3,4.97,0.00,22.1,21.1,00.0,30.9,23.9,08.6,0000.0,0003.39,0000.79,0000.55
2022-12-21 18:39:00,,0816.4,5.01,0.00,22.2,21.0,00.0,30.9,24.0,08.5,0000.0,0003.93,0000.81,0000.55
2022-12-21 18:40:00,,0816.5,5.01,0.00,22.2,21.0,00.0,30.9,23.9,08.5,0000.0,0004.21,0000.83,0000.55
2022-12-21 18:41:00,,0816.4,5.01,0.00,22.1,21.0,00.0,30.9,23.8,08.5,0000.0,0002.82,0000.84,0000.55
2022-12-21 18:42:00,,0816.3,4.96,0.00,22.1,21.1,00.0,31.0,23.9,08.5,0000.0,0002.87,0000.85,0000.55
2022-12-21 18:43:00,,0816.2,5.01,0.00,22.2,21.0,00.0,31.0,23.9,08.6,0000.0,0002.65,0000.89,0000.55
2022-12-21 18:44:00,,0816.2,5.02,0.00,22.2,21.0,00.0,30.9,23.9,08.7,0000.0,0002.54,0000.91,0000.56
2022-12-21 18:45:00,,0816.3,5.00,0.00,22.2,21.0,00.0,31.0,23.9,08.8,0000.0,0002.56,0000.91,0000.56
2022-12-21 18:46:00,,0816.5,4.95,0.00,22.2,21.0,00.0,31.0,24.0,08.8,0000.0,0002.54,0000.91,0000.57
2022-12-21 18:47:00,,0816.5,5.02,0.00,22.2,21.0,00.0,31.0,24.0,08.8,0000.0,0002.58,0000.94,0000.57
2022-12-21 18:48:00,,0816.4,5.03,0.00,22.2,21.0,00.0,31.0,24.0,08.8,0000.0,0002.57,0000.94,0000.57
2022-12-21 18:49:00,,0816.3,4.98,0.00,22.2,21.0,00.0,31.0,24.0,08.8,0000.0,0002.60,0000.96,0000.58
2022-12-21 18:50:00,,0816.4,4.97,0.00,22.2,21.0,00.0,31.0,23.9,08.6,0000.0,0002.21,0000.94,0000.58
2022-12-21 18:51:00,,0816.2,5.04,0.00,22.2,21.0,00.0,31.0,23.9,08.7,0000.0,0001.64,0000.93,0000.58
2022-12-21 18:52:00,,0816.0,5.01,0.00,22.2,21.0,00.0,31.0,24.0,08.7,0000.0,0001.69,0000.97,0000.58
2022-12-21 18:53:00,,0815.8,4.96,0.00,22.2,21.0,00.0,31.0,24.0,08.7,0000.0,0001.62,0000.94,0000.58
2022-12-21 18:54:00,,0816.1,5.03,0.00,22.2,21.0,00.0,31.0,24.0,08.7,0000.0,0001.63,0000.92,0000.58
2022-12-21 18:55:00,,0816.1,5.03,0.00,22.2,21.0,00.0,31.0,24.0,08.8,0000.0,0001.71,0000.90,0000.58
2022-12-21 18:56:00,,0816.1,4.96,0.00,22.2,21.0,00.0,31.0,24.0,08.7,0000.0,0001.79,0000.90,0000.57
2022-12-21 18:57:00,,0816.2,5.02,0.00,22.2,21.1,00.0,31.0,23.9,08.7,0000.0,0001.85,0000.92,0000.57
2022-12-21 18:58:00,,0816.2,5.03,0.00,22.2,21.1,00.0,31.0,23.9,08.8,0000.0,0001.74,0000.87,0000.56
2022-12-21 18:59:00,,0816.2,4.99,0.00,22.2,21.1,00.0,31.0,24.0,08.8,0000.0,0002.73,0000.87,0000.54
